User: anonymous
Location: Unspecified
(0.0000°N, 0.0000°E)
Time: 06:04:52
(UTC+02:00)
Language:

CZ-4B R/B - Orbit

View from above orbital plane
View from above orbital plane
View from above satellite
View from above satellite

Ground track
Ground track

The orbit data is extracted from the following two-line orbital elements,

1 33410U 08053C   14262.07145848  .00004562  00000-0  36686-3 0  9202
2 33410 097.5950 236.3399 0127983 312.4458 046.5996 14.94232436320866
Epoch (UTC): 19 September 2014 01:42:54
Eccentricity: 0.0127983
inclination: 97.5950°
perigee height: 495 km
apogee height: 674 km
right ascension of ascending node: 236.3399°
argument of perigee: 312.4458°
revolutions per day: 14.94232436
mean anomaly at epoch: 46.5996°
orbit number at epoch: 32086

The dashed part of the orbit path shows where the satellite is in the earth's shadow,  

DLR